Location: Mactaquac Provincial Park
(45.9573°N, 66.8897°W)
Time: 03:11:05
(UTC-03:00)

Daily predictions for brighter satellites

Satellite Brightness Start Highest point End
(mag) Time Altitude Azimuth Time Altitude Azimuth Time Altitude Azimuth
Cosmos 1709 Rocket 4.1 00:02:51 21° SSW 00:07:05 74° W 00:13:13 10° N
Cosmos 2221 Rocket 3.8 00:02:55 10° NNW 00:07:29 68° W 00:09:20 34° SSW
Cosmos 1455 4.3 00:05:09 10° NW 00:08:01 20° W 00:10:08 14° SW
Aureole 2 Rocket 2.6 00:06:07 10° NNW 00:09:16 55° ENE 00:09:45 49° ESE
USA 238 DEB 3.8 00:03:16 10° NW 00:10:22 79° NE 00:14:41 26° SE
USA 238 3.8 00:03:22 10° NW 00:10:27 79° NE 00:14:48 25° SE
COS B Rocket 3.3 00:09:16 10° N 00:13:11 82° W 00:14:33 42° S
Cosmos 1933 4.1 00:10:03 10° NNW 00:13:57 45° W 00:15:26 31° SW
Cosmos 2297 Rocket 2.8 00:08:34 10° SW 00:14:08 57° WNW 00:19:44 10° NNE
COSMOS 2455 3.3 00:09:25 10° NW 00:15:12 49° WSW 00:17:55 29° S
Cosmos 2219 Rocket 4.3 00:12:03 10° WNW 00:15:20 16° W 00:18:38 10° SW
CZ-4C R/B 3.9 00:15:54 34° E 00:16:35 38° ENE 00:19:58 10° N
Cosmos 1689 Rocket 4.0 00:19:05 23° E 00:19:34 24° ENE 00:22:18 10° NNE
Cosmos 44 4.2 00:19:25 32° SE 00:20:16 34° ESE 00:25:09 10° NE
NOSS 2-3 (E) 3.9 00:18:12 27° SSW 00:20:57 75° SE 00:26:45 10° NE
Cosmos 1782 4.1 00:19:03 10° NNE 00:22:30 28° ENE 00:23:27 25° E
Cosmos 1943 4.4 00:17:27 10° NNW 00:22:40 35° NE 00:26:20 17° ESE
Cosmos 1932 4.5 00:17:57 10° NW 00:24:22 85° WSW 00:27:34 32° SSE
Cosmos 1340 Rocket 3.3 00:29:25 40° ESE 00:29:46 41° E 00:33:29 10° NNE
Landsat 5 4.4 00:34:15 32° ESE 00:35:45 45° ENE 00:40:06 10° N
Cosmos 1603 3.7 00:30:08 10° NNW 00:35:52 90° NE 00:38:14 37° SSE
Cosmos 1238 Rocket 4.3 00:34:00 10° NNE 00:37:02 21° ENE 00:37:42 20° E
Cosmos 2251 Rocket 3.5 00:31:48 10° NNW 00:37:10 88° WSW 00:39:06 41° SSE
H-2A R/B 2.9 00:37:20 10° NNE 00:41:28 48° E 00:42:10 44° SE
CZ-4C R/B 3.0 00:36:18 10° NW 00:43:15 72° NE 00:48:29 22° SE
NOSS 3-2 (C) 4.5 00:36:35 10° NW 00:43:48 57° NE 00:50:42 14° ESE
SeaSat 1 2.4 00:43:30 43° SSE 00:45:06 75° WSW 00:50:04 10° NNW
Cosmos 1606 4.0 00:42:20 10° NNE 00:45:43 29° ENE 00:46:28 27° E
Cosmos 2184 Rocket 3.9 00:43:47 33° SSW 00:46:47 85° W 00:53:00 10° N
NOSS 2-3 (C) 4.2 00:44:46 19° SW 00:48:21 73° NW 00:54:18 10° NE
Cosmos 494 Rocket 4.0 00:43:10 10° NNW 00:48:28 81° ENE 00:50:22 41° SSE
ASTEX 1 3.4 00:44:28 10° N 00:49:21 68° E 00:50:45 45° SSE
Cosmos 2237 Rocket 4.4 00:47:25 10° WNW 00:49:50 13° W 00:52:14 10° WSW
H-2A R/B 4.3 00:46:34 10° SW 00:49:51 16° W 00:53:10 10° NW
Helios 1A Rocket 4.0 00:46:21 10° NNE 00:50:07 32° E 00:50:27 31° ESE
FALCON 9 R/B 3.7 00:39:32 10° W 00:52:40 31° SW 00:54:02 29° SSW
Cosmos 1733 Rocket 3.0 00:53:33 53° SSE 00:54:31 74° E 00:58:59 10° NNE
Cosmos 1408 4.4 00:58:46 21° E 00:58:54 21° E 01:01:46 10° NE
Cosmos 1867 4.2 00:55:59 10° NNW 01:01:22 51° NE 01:04:45 22° ESE
CZ-4B R/B 1.3 01:03:32 83° WSW 01:03:33 84° WSW 01:06:56 10° NNW
Cosmos 1892 2.6 01:03:35 64° SW 01:04:01 74° W 01:07:50 10° N
Cosmos 1378 Rocket 4.2 00:59:50 10° N 01:04:02 44° ENE 01:05:05 36° ESE
Sich 1 Rocket 3.8 01:03:41 48° SE 01:04:32 56° E 01:09:00 10° NNE
NOSS 3-2 (A) 4.0 00:58:14 10° NW 01:05:39 80° NE 01:11:00 23° SE
Cosmos 44 Rocket 4.1 01:03:45 17° WSW 01:07:42 54° NW 01:12:52 10° NNE
NOSS 3-4 (A) 4.0 01:07:02 35° SSE 01:08:44 42° ESE 01:14:51 10° NE
NOSS 3-4 (C) 4.1 01:07:09 35° SSE 01:08:50 41° ESE 01:14:56 10° NE
CZ-2C R/B 4.3 01:06:38 21° ESE 01:09:46 37° ENE 01:14:48 10° N
Cosmos 1862 4.2 01:10:23 35° ESE 01:10:44 36° E 01:14:27 10° NNE
Cosmos 2341 Rocket 4.2 01:09:08 36° SSE 01:11:43 64° E 01:18:01 10° NNE
ALOS 2 2.9 01:13:37 47° SW 01:14:26 56° W 01:18:47 10° NNW
GEOS 3 Rocket 3.6 01:13:50 43° SSE 01:15:30 69° SW 01:20:42 10° NW
Coronas F rocket 2.7 01:19:36 38° NNW 01:19:36 38° NNW 01:21:33 10° N
Cosmos 1825 2.9 01:22:21 39° E 01:22:31 39° E 01:26:05 10° NNE
Meteor 2-10 Rocket 4.3 01:21:12 10° NNW 01:26:33 46° W 01:28:33 33° SW
Cosmos 2084 Rocket 4.3 01:28:50 25° W 01:30:34 41° NW 01:34:13 10° NNE
Cosmos 2263 Rocket 2.6 01:29:48 38° SSE 01:31:21 48° ESE 01:36:48 10° NE
MOS 1-B Rocket 3.7 01:31:37 40° SSE 01:33:46 86° WSW 01:39:26 10° NNW
Cosmos 1782 Rocket 3.9 01:33:31 46° SE 01:34:17 53° E 01:38:34 10° NNE
Cosmos 921 Rocket 3.2 01:37:04 46° WSW 01:38:01 60° WNW 01:42:12 10° NNE
Okean 2 Rocket 3.5 01:38:17 43° SE 01:39:12 50° E 01:43:34 10° NNE
Cosmos 1356 Rocket 4.1 01:40:30 37° WSW 01:41:22 42° WNW 01:45:17 10° N
Cosmos 1674 Rocket 4.4 01:37:34 10° NNW 01:41:40 37° W 01:42:28 34° WSW
Cosmos 1607 4.5 01:38:36 10° NW 01:44:16 39° WSW 01:45:42 34° SW
Nadezhda 3 Rocket 4.4 01:41:54 10° NNW 01:47:52 50° W 01:50:20 33° SW
CZ-2C R/B 2.5 01:43:11 10° NNE 01:48:26 82° ESE 01:50:05 45° S
Cosmos 1689 Rocket 4.3 01:52:09 20° W 01:52:09 20° W 01:54:16 10° NW
Cosmos 1371 Rocket 4.5 01:51:33 39° SSE 01:53:04 51° ESE 01:58:16 10° NNE
Cosmos 1975 Rocket 2.9 01:49:25 10° N 01:53:50 84° W 01:54:40 58° S
Cosmos 2056 Rocket 4.3 01:52:31 32° SE 01:53:58 38° ESE 01:58:47 10° NE
Abrixas rocket 3.7 01:58:39 29° E 01:58:39 29° E 02:00:31 10° ENE
Cosmos 1782 4.3 01:55:34 10° NW 01:58:46 24° W 01:59:07 23° W
COSMOS 2406 3.9 01:54:48 10° NNW 02:00:27 52° ENE 02:04:46 17° SE
Cosmos 44 4.4 01:57:49 19° WSW 02:01:26 46° NW 02:06:43 10° NNE
Cosmos 1908 Rocket 4.2 02:02:05 38° WSW 02:03:07 45° WNW 02:07:19 10° N
Cosmos 1727 Rocket 4.1 01:57:43 10° N 02:03:58 70° E 02:07:04 31° SSE
Cosmos 1536 Rocket 4.4 02:01:33 10° N 02:05:45 43° ENE 02:07:26 29° SE
Cosmos 1943 3.8 02:01:30 10° NW 02:06:47 41° WSW 02:08:08 35° SW
Geosat 4.0 02:02:36 10° NNE 02:07:39 76° WNW 02:09:37 38° SW
Okean 3 3.8 02:03:58 10° NNW 02:08:09 50° W 02:08:50 45° SW
BREEZE-M DEB (TANK) 3.9 02:05:40 10° WNW 02:09:06 24° WSW 02:09:06 24° WSW
Cosmos 909 Rocket 4.5 02:09:19 34° S 02:11:59 56° ESE 02:19:14 10° NE
Iridium 4 Rocket 4.0 02:10:33 10° N 02:15:11 49° E 02:17:28 29° SE
Cosmos 1238 Rocket 4.2 02:13:56 10° NW 02:16:54 22° W 02:16:56 22° W
CENTAUR R/B 3.5 02:11:36 10° NW 02:19:14 63° NE 02:27:24 10° SE
SL-27 R/B 3.6 02:16:17 10° N 02:19:47 41° ENE 02:21:10 28° ESE
USA 234 3.7 02:14:28 10° ESE 02:20:54 62° NNE 02:27:21 10° NW
Cosmos 1606 4.4 02:18:24 10° NW 02:21:24 22° W 02:21:35 22° W
CZ-4C R/B 3.7 02:25:24 10° NW 02:31:33 31° WSW 02:33:37 27° SW
Cosmos 1184 Rocket 2.9 02:33:17 60° W 02:33:27 61° WNW 02:36:47 10° N
RESURS DK-1 2.5 02:32:36 45° SW 02:33:42 67° WNW 02:37:52 10° NNE
Cosmos 1408 4.0 02:33:18 27° W 02:33:58 28° WNW 02:37:16 10° NNW
NOSS 3-2 (C) 4.4 02:27:45 10° NW 02:34:46 43° WSW 02:38:05 30° SSW
Cosmos 1624 Rocket 3.9 02:35:46 39° SSW 02:37:48 85° WNW 02:43:06 10° NNE
Cosmos 2151 Rocket 3.5 02:37:21 46° S 02:38:40 87° W 02:43:11 10° N
PSLV R/B 3.8 02:35:00 10° NNE 02:39:10 58° E 02:40:27 39° SSE
Okean 1 Rocket 4.2 02:39:07 24° SE 02:41:03 36° E 02:45:11 10° NNE
Meteor 1-14 Rocket 4.3 02:39:42 34° SSW 02:42:24 77° W 02:48:18 10° N
Okean 1-7 Rocket 4.5 02:39:48 10° N 02:44:14 46° ENE 02:46:59 21° SE
CRYOSAT 2 4.3 02:39:35 10° N 02:44:29 85° E 02:46:25 37° S
Cosmos 1867 4.5 02:40:02 10° NW 02:44:43 29° WSW 02:45:23 29° SW
CZ-2C R/B 4.0 02:47:42 29° SW 02:49:35 36° W 02:54:42 10° NNW
ERS-2 3.9 02:48:34 10° NE 02:51:40 24° E 02:53:09 19° SE
Meteor 2-19 Rocket 4.4 02:50:44 31° SSW 02:53:51 77° W 03:00:03 10° N
Cosmos 1825 4.3 02:57:17 15° W 02:58:21 16° WNW 03:00:48 10° NNW
BREEZE-M DEB (TANK) 3.8 02:55:31 10° WNW 02:58:59 64° N 03:11:15 10° E
Cosmos 1452 Rocket 3.7 02:57:07 31° S 02:59:34 61° ESE 03:04:46 10° NNE
NOSS 3-4 (A) 4.3 02:54:26 15° WSW 02:59:36 48° NW 03:06:02 10° NNE
NOSS 3-4 (C) 4.3 02:54:33 15° WSW 02:59:41 48° NW 03:06:08 10° NNE
Meteor 1-18 Rocket 4.3 02:58:01 10° NNW 03:03:38 62° W 03:06:31 29° SSW
BREEZE-M DEB (TANK) 4.5 02:55:46 10° WNW 03:04:44 31° SW 03:05:38 29° SSW
Cosmos 1242 Rocket 3.7 03:02:36 10° NW 03:05:35 26° W 03:05:38 26° W
Cosmos 1821 Rocket 4.3 03:04:14 22° S 03:08:27 67° E 03:14:47 10° NNE
GP-B 3.3 03:04:33 10° N 03:09:00 67° E 03:11:21 27° SSE
Cosmos 1812 2.8 03:07:09 10° NNW 03:11:01 63° W 03:12:11 40° SSW
Cosmos 1844 Rocket 2.8 03:08:12 28° S 03:11:11 68° ESE 03:16:50 10° NNE
JB-3 4.3 03:10:07 10° N 03:13:58 69° WNW 03:15:21 37° SSW
Meteor 1-20 Rocket 4.3 03:10:58 28° SSW 03:14:10 81° W 03:19:58 10° N
Cosmos 1536 4.4 03:11:50 16° SE 03:14:26 30° E 03:18:01 10° NNE
IRAS Rocket 4.4 03:08:55 10° NNE 03:14:27 68° ESE 03:17:49 24° S
Cosmos 1140 Rocket 3.7 03:09:20 10° NNW 03:14:29 71° ENE 03:19:25 11° SSE
Gbstr 26 Del rocket 2.9 03:13:30 39° SSW 03:14:38 54° SE 03:18:20 10° ENE
IRS-P3 4.1 03:10:06 10° NNE 03:15:29 81° ESE 03:18:33 26° S
Cosmos 2263 Rocket 3.5 03:11:29 15° WSW 03:15:29 31° NW 03:20:32 10° N
SL-16 R/B 3.9 03:09:57 10° SE 03:15:36 38° ENE 03:21:15 10° N
Resurs 1-4 Rocket 4.2 03:12:49 10° NE 03:16:43 20° E 03:20:35 10° SE
Meteor 2-21 4.5 03:15:07 23° S 03:19:02 79° E 03:25:11 10° NNE
NOSS 2-2 (C) 4.2 03:19:06 28° S 03:20:52 45° ESE 03:25:28 10° NE
ADEOS 4.2 03:19:33 10° NNE 03:24:39 49° E 03:28:23 18° S
ATLAS 5 CENTAUR R/B 2.6 03:22:26 10° NW 03:28:21 74° NE 03:34:44 10° SE
Cosmos 1844 3.9 03:25:12 25° S 03:28:39 70° ESE 03:34:24 10° NNE
Cosmos 1300 Rocket 3.7 03:29:48 29° SW 03:31:48 58° WNW 03:36:08 10° N
SL-08 R/B 3.4 03:29:13 22° S 03:32:20 68° WSW 03:37:13 10° NNW
COSMOS 2487 2.5 03:29:14 10° NNW 03:32:53 86° ENE 03:35:21 19° SSE
Meteor 1-11 Rocket 4.0 03:28:37 20° S 03:32:54 72° E 03:38:52 10° NNE
Meteor 1-13 Rocket 4.2 03:27:40 10° NNW 03:33:23 78° W 03:37:56 17° S
Abrixas rocket 2.8 03:31:35 14° W 03:34:20 58° N 03:37:40 10° ENE
Cosmos 407 Rocket 4.4 03:30:08 10° NW 03:34:38 31° W 03:36:34 24° SW
Cosmos 1633 3.4 03:35:53 19° SSE 03:38:10 44° E 03:41:40 10° NNE
Cosmos 1850 Rocket 4.0 03:33:24 10° NNW 03:38:41 87° ENE 03:43:58 10° SSE
Cosmos 2278 Rocket 2.5 03:36:48 20° S 03:40:40 59° ESE 03:46:16 10° NNE
Cosmos 1741 Rocket 4.0 03:36:59 10° NNW 03:42:19 90° NNW 03:47:34 10° SSE
AQUA 3.8 03:37:45 10° NNE 03:42:33 81° WNW 03:45:34 23° SSW
COSMOS 2406 4.3 03:39:41 10° NW 03:44:28 27° WSW 03:46:47 21° SW
NOSS 2-2 (E) 3.6 03:43:12 25° SSW 03:45:41 82° SE 03:50:48 10° NE
Cosmos 1892 Rocket 3.7 03:46:24 10° N 03:50:46 72° E 03:55:05 10° SSE
USA 161 1.5 03:49:31 20° SSE 03:51:21 80° ENE 03:54:21 10° N
Spot 4 Rocket 4.2 03:46:12 10° NNE 03:51:22 72° ESE 03:55:29 16° S
Cosmos 1461 3.2 03:50:09 22° SSW 03:53:07 75° SE 03:57:43 10° NE
Cosmos 1400 Rocket 3.2 03:50:23 17° S 03:53:14 57° E 03:57:08 10° NNE
SL-27 R/B 4.5 03:52:36 10° WNW 03:54:44 15° W 03:54:52 15° W
Cosmos 2082 Rocket 3.0 03:51:16 10° NNW 03:56:55 55° ENE 04:02:30 10° SE
SME Rocket 3.5 03:59:25 10° SSE 04:03:08 61° ENE 04:07:41 10° N
USA 234 3.4 03:57:44 10° SSE 04:04:01 49° SW 04:10:21 10° WNW
Cosmos 1602 4.1 04:03:09 21° SW 04:05:24 48° WNW 04:09:10 10° N
Cosmos 614 Rocket 4.0 04:01:25 10° NNW 04:06:32 64° WSW 04:11:35 10° S
NPP 4.3 04:03:58 10° N 04:09:03 44° WNW 04:13:05 16° SW
CENTAUR R/B 3.5 04:02:39 10° NW 04:09:48 39° WSW 04:17:17 10° S
IRS-1D 3.7 04:05:34 10° NNE 04:10:39 69° ESE 04:15:28 11° S
Meteor 2-4 Rocket 3.6 04:07:07 10° NNW 04:12:30 69° W 04:17:47 10° S
Cosmos 1934 Rocket 4.4 04:08:08 16° SSW 04:12:54 50° WNW 04:18:51 10° N
APEX 4.3 04:12:32 11° SSE 04:14:58 29° ESE 04:18:06 10° NE
Cosmos 1447 Rocket 4.4 04:12:02 10° N 04:18:13 78° W 04:24:19 10° S
MTI 4.4 04:17:28 10° SSE 04:20:43 59° ENE 04:23:58 10° N
Cosmos 1602 Rocket 4.3 04:16:29 10° N 04:20:45 54° ENE 04:25:02 10° SSE
CZ-2D R/B 2.4 04:17:28 10° NNE 04:22:56 72° ESE 04:28:25 10° S
Cosmos 1315 Rocket 3.0 04:19:38 11° S 04:23:32 77° E 04:27:34 10° NNE
Cosmos 1346 Rocket 4.4 04:21:22 10° N 04:25:09 36° ENE 04:28:53 10° SE
ERS-2 3.6 04:22:17 10° N 04:25:25 26° WNW 04:28:00 13° WSW
Cosmos 1174 3.3 04:24:10 10° NW 04:27:56 71° WSW 04:31:04 10° SSE
Cosmos 1025 Rocket 4.0 04:26:15 10° NNW 04:29:58 29° W 04:33:10 13° SW
Timation 2 Rocket 4.1 04:25:51 10° NW 04:31:46 51° WSW 04:37:30 10° S
Cosmos 1833 Rocket 2.8 04:29:12 10° NNW 04:34:52 82° ENE 04:40:29 10° SSE
Okean O Rocket 2.8 04:32:35 10° NNE 04:36:41 39° E 04:40:45 10° SSE
Cosmos 1626 Rocket 3.7 04:33:23 10° N 04:37:47 82° E 04:42:11 10° S
ARIANE 5 R/B 2.6 04:32:54 10° N 04:37:51 63° WNW 04:42:48 10° SSW
UNK 3.9 04:33:43 10° S 04:38:15 56° W 04:42:52 10° NNW
Cosmos 1455 Rocket 3.2 04:36:21 10° SSW 04:40:46 62° W 04:45:11 10° N
Cosmos 1110 Rocket 4.2 04:36:29 10° SSW 04:41:47 79° ESE 04:47:05 10° NNE
UNKNOWN OBJECT B 3.0 04:37:42 10° NNE 04:41:50 81° ESE 04:45:54 10° S
Cosmos 2061 Rocket 4.2 04:35:46 10° S 04:42:06 83° E 04:48:33 10° N
Cosmos 1975 3.4 04:38:26 10° S 04:42:21 58° E 04:46:18 10° NNE
DNEPR-1 R/B 4.2 04:37:52 10° NW 04:43:46 81° NE 04:48:33 10° SE
USA 229 DEB 4.4 04:38:00 10° NW 04:45:03 62° NE 04:52:10 10° SE
USA 229 4.5 04:38:05 10° NW 04:45:09 62° NE 04:52:15 10° SE
Cosmos 1536 4.3 04:47:39 10° SW 04:50:56 23° WNW 04:54:13 10° NNW
Okean 2 4.3 04:47:29 10° NNW 04:51:07 31° W 04:54:46 10° SSW
IRS-1C Rocket 4.4 04:50:14 10° NNE 04:55:31 70° ESE 05:00:45 10° S
Cosmos 1844 Rocket 4.3 04:51:05 10° W 04:55:37 24° NW 05:00:09 10° N
PSLV R/B 4.4 04:52:36 10° NNE 04:56:46 63° ESE 05:00:49 10° S
Resurs 1-4 Rocket 2.3 04:51:43 10° N 04:56:57 59° WNW 05:02:08 10° SSW
SL-16 R/B 3.0 04:53:21 10° SSW 04:59:10 41° W 05:05:02 10° NNW
Gbstr 26 Del rocket 3.7 04:57:51 10° W 05:01:32 42° NNW 05:05:07 10° ENE
Cosmos 1331 Rocket 4.0 04:56:31 10° SSW 05:01:45 81° WNW 05:06:59 10° NNE
Cosmos 2016 Rocket 4.1 04:56:51 10° S 05:03:10 87° E 05:09:26 10° N
EO 1 Del DPAF 4.4 05:00:28 10° SSW 05:03:45 25° W 05:07:03 10° NW
Thor Agena Rocket 3.7 05:00:23 10° SSE 05:05:33 83° ENE 05:10:41 10° NNW
MOZ.5/SAFIR/RUBIN 5/SL-8 3.9 05:01:55 10° SSE 05:06:43 86° ENE 05:11:32 10° NNW
